This is the latest recevied weather packets stored in our database for station/object HB9HFD-13. If no packets are shown the sender has not sent any weather packets the latest 10 day(s).
| Time | Temp. | Humidity | Pressure | Rain* | Wind** | Luminosity | Snow |
|---|---|---|---|---|---|---|---|
| 1787835377 | 29.44° C | 49% | 1010.7 hPa | 0 mm | - | - | - |
| 1787835076 | 29.44° C | 49% | 1010.8 hPa | 0 mm | - | - | - |
| 1787834776 | 29.44° C | 50% | 1010.8 hPa | 0 mm | - | - | - |
| 1787834476 | 29.44° C | 49% | 1010.8 hPa | 0 mm | - | - | - |
| 1787834175 | 30° C | 46% | 1010.9 hPa | 0 mm | - | - | - |
| 1787833875 | 30° C | 49% | 1010.9 hPa | 0 mm | - | - | - |
| 1787833575 | 30° C | 50% | 1010.9 hPa | 0 mm | - | - | - |
| 1787833275 | 30° C | 50% | 1010.9 hPa | 0 mm | - | - | - |
| 1787832975 | 29.44° C | 52% | 1011 hPa | 0 mm | - | - | - |
| 1787832674 | 28.89° C | 54% | 1011 hPa | 0 mm | - | - | - |
| 1787832374 | 28.33° C | 55% | 1011 hPa | 0 mm | - | - | - |
| 1787832074 | 28.33° C | 52% | 1011 hPa | 0 mm | - | - | - |
| 1787831773 | 28.33° C | 52% | 1011 hPa | 0 mm | - | - | - |
| 1787831473 | 28.33° C | 57% | 1011.1 hPa | 0 mm | - | - | - |
| 1787831173 | 28.33° C | 55% | 1011.1 hPa | 0 mm | - | - | - |
| 1787830873 | 28.33° C | 58% | 1011.1 hPa | 0 mm | - | - | - |
| 1787830572 | 27.78° C | 56% | 1011.1 hPa | 0 mm | - | - | - |
| 1787830272 | 27.22° C | 59% | 1011.1 hPa | 0 mm | - | - | - |
| 1787829972 | 27.22° C | 58% | 1011.2 hPa | 0 mm | - | - | - |
| 1787829672 | 27.22° C | 56% | 1011.3 hPa | 0 mm | - | - | - |
| 1787829371 | 27.22° C | 58% | 1011.4 hPa | 0 mm | - | - | - |
| 1787829071 | 27.22° C | 58% | 1011.4 hPa | 0 mm | - | - | - |
| 1787828771 | 27.22° C | 59% | 1011.4 hPa | 0 mm | - | - | - |
| 1787828471 | 27.22° C | 59% | 1011.4 hPa | 0 mm | - | - | - |
| 1787828170 | 27.22° C | 60% | 1011.4 hPa | 0 mm | - | - | - |
* Rain latest hour (hover to see other rain measurements)
** Current wind speed in m/s (hover to see current wind gust speed)